Regional Weather Roundup
Issued by NWS Cleveland, OH

Home | Current Version | Previous Version | Graphics & Text | Print | Product List | Glossary On
Versions: 1 2 3 4 5 6 7 8 9 10 11 12 13 14 15 16 17 18 19 20 21 22 23 24 25 26 27 28 29 30 31 32 33 34 35 36 37 38 39 40 41 42 43 44 45 46 47 48 49 50
000
ASUS41 KCLE 081200
RWRCLE
OHIO REGIONAL WEATHER ROUNDUP
NATIONAL WEATHER SERVICE WILMINGTON, OH
700 AM EST MON FEB 08 2016

NOTE: "FAIR" INDICATES FEW OR NO CLOUDS BELOW 12,000 FEET WITH NO
SIGNIFICANT WEATHER AND/OR OBSTRUCTIONS TO VISIBILITY.

OHZ001>008-015>018-024>027-034-035-043-044-081300-
   NORTHWEST OHIO

CITY           SKY/WX    TMP DP  RH WIND       PRES   REMARKS
DEFIANCE       FAIR      33  29  85 W3        29.65R
FINDLAY        CLOUDY    35  31  85 W6        29.63S
TOLEDO EXPRESS MOCLDY    31  28  89 SW5       29.63S WCI  26
TOLEDO EXEC    FAIR      33  29  85 SW5       29.63F WCI  29
LIMA           CLOUDY    34  31  88 W7        29.63S WCI  28
$$

OHZ009>014-019>023-028>033-038-089-081300-
   NORTHEAST OHIO

CITY           SKY/WX    TMP DP  RH WIND       PRES   REMARKS
CLE-HOPKINS    LGT RAIN  38  34  85 SE7       29.66F
CLE-LAKEFRONT  LGT RAIN  40  34  79 S8        29.64F
CUY CO. ARPT   CLOUDY    39  32  75 S9        29.65
LORAIN-ELYRIA  LGT RAIN  37  35  92 S5        29.63F
ASHTABULA      CLOUDY    36  25  64 S6        29.66F
AKRON-CANTON   CLOUDY    36  23  59 S5        29.64F
WOOSTER        CLOUDY    36  30  80 SE5       29.64F
MANSFIELD      MIX PCPN  36  35  96 S7        29.61F
YOUNGSTOWN     FAIR      35  23  61 S7        29.65F WCI  29
$$

OHZ042-051>053-060>062-070>072-077>081-081300-
  SOUTHWEST OHIO

CITY           SKY/WX    TMP DP  RH WIND       PRES   REMARKS
CINC-COVINGTON LGT RAIN  36  34  92 W9        29.67S
CINC-LUNKEN    CLOUDY    37  36  96 S5        29.69F
HAMILTON       CLOUDY    37  32  82 CALM      29.68S
DAYTON         MOCLDY    36  34  93 SW5       29.65F
WRIGHT-PAT AFB NOT AVBL
DAYTON GENERAL CLOUDY    35  33  92 S3        29.64F
WILMINGTON     LGT RAIN  34  33  96 W8        29.65F WCI  27
$$

OHZ036-037-039>041-045>050-054>059-063>069-073>076-082>088-081300-
  CENTRAL AND SOUTHEAST OHIO

CITY           SKY/WX    TMP DP  RH WIND       PRES   REMARKS
COLUMBUS       LGT RAIN  38  38 100 CALM      29.63F
OSU AIRPORT    LGT RAIN  38  35  89 W6        29.63F
BOLTON FIELD   NOT AVBL
RICKENBACK AFB NOT AVBL
NEWARK         LGT RAIN  37  34  89 CALM      29.63F
MARION         LGT SNOW  35  31  85 W8        29.63F FOG     WCI  29
LANCASTER      LGT RAIN  40  32  73 SW7       29.64F
ZANESVILLE     CLOUDY    37  25  61 SE5       29.64F
NEW PHILLY     CLOUDY    35  26  69 SE5       29.65F
$$



USA.gov is the U.S. government's official web portal to all federal, state and local government web resources and services.